FDX5046 KEWR-LFPG

Flight info

Callsign FDX5046
Flight time N/A
Altitude 41000
Route MERIT DCT HFD DCT PUT DCT BOS DCT KANNI N257B NICSO/M084F410 DCT 48N050W 49N040W 51N030W 52N020W DCT LIMRI/N0478F410 DCT XETBO/M085F410 DCT ARKIL/N0480F410 DCT ANNET UM25 LUKIP
Aircraft B77L/H-VGDW/C

Departure

Time 2026-04-23 18:09
Airport Newark Liberty International Airport (KEWR)

Arrival

Time N/A
Airport Charles de Gaulle International Airport (LFPG)
Time Latitude Longitude Altitude Speed Heading
2026-04-23 17:39 40.67658 -74.18297 27 ft 0 kts 206°
2026-04-23 17:59 40.67666 -74.18292 27 ft 4 kts 206°
2026-04-23 18:00 40.67690 -74.18276 27 ft 4 kts 206°
2026-04-23 18:00 40.67714 -74.18267 26 ft 4 kts 169°
2026-04-23 18:00 40.67733 -74.18281 25 ft 2 kts 116°
2026-04-23 18:00 40.67742 -74.18308 24 ft 4 kts 116°
2026-04-23 18:01 40.67746 -74.18317 24 ft 0 kts 116°
2026-04-23 18:05 40.67745 -74.18316 24 ft 1 kts 116°
2026-04-23 18:05 40.67741 -74.18303 24 ft 2 kts 116°
2026-04-23 18:06 40.67735 -74.18287 25 ft 3 kts 116°
2026-04-23 18:06 40.67722 -74.18252 26 ft 5 kts 116°
2026-04-23 18:06 40.67704 -74.18205 27 ft 6 kts 116°
2026-04-23 18:06 40.67679 -74.18149 27 ft 8 kts 133°
2026-04-23 18:07 40.67636 -74.18099 27 ft 9 kts 137°
2026-04-23 18:07 40.67590 -74.18033 27 ft 10 kts 131°
2026-04-23 18:07 40.67563 -74.17962 27 ft 6 kts 92°
2026-04-23 18:07 40.67588 -74.17917 27 ft 7 kts 38°
2026-04-23 18:08 40.67630 -74.17887 27 ft 0 kts 24°
2026-04-23 18:08 40.67680 -74.17856 31 ft 26 kts 25°
2026-04-23 18:08 40.68154 -74.17563 30 ft 125 kts 25°
2026-04-23 18:08 40.69184 -74.16892 143 ft 192 kts 20°
2026-04-23 18:09 40.70362 -74.16067 1177 ft 191 kts 30°
2026-04-23 18:09 40.71309 -74.14841 1984 ft 199 kts 47°
2026-04-23 18:09 40.72297 -74.13486 2638 ft 212 kts 28°
2026-04-23 18:09 40.73634 -74.12650 3614 ft 212 kts 23°
2026-04-23 18:10 40.75034 -74.11628 3892 ft 246 kts 26°
2026-04-23 18:10 40.76494 -74.10476 4556 ft 247 kts 27°
2026-04-23 18:10 40.78021 -74.09270 4988 ft 262 kts 27°
2026-04-23 18:10 40.79590 -74.08024 4986 ft 262 kts 27°
2026-04-23 18:11 40.80980 -74.06487 4989 ft 268 kts 50°
2026-04-23 18:11 40.81750 -74.04196 4981 ft 282 kts 77°
2026-04-23 18:11 40.81653 -74.01617 5074 ft 285 kts 102°
2026-04-23 18:11 40.81304 -73.99063 5661 ft 287 kts 82°
2026-04-23 18:12 40.81955 -73.96658 6739 ft 275 kts 45°
2026-04-23 18:12 40.83272 -73.94884 7764 ft 274 kts 38°
2026-04-23 18:12 40.84579 -73.93036 8831 ft 283 kts 39°
2026-04-23 18:12 40.85913 -73.91051 10025 ft 287 kts 39°
2026-04-23 18:13 40.87241 -73.89070 10925 ft 300 kts 38°
2026-04-23 18:13 40.88711 -73.86914 11303 ft 333 kts 39°
2026-04-23 18:13 40.90350 -73.84529 11586 ft 368 kts 40°
2026-04-23 18:13 40.92100 -73.81961 12452 ft 382 kts 40°
2026-04-23 18:14 40.93890 -73.79317 13603 ft 389 kts 40°
2026-04-23 18:14 40.95708 -73.76629 14689 ft 395 kts 40°
2026-04-23 18:14 40.97554 -73.73904 15702 ft 402 kts 40°
2026-04-23 18:14 40.99441 -73.71128 16668 ft 409 kts 39°
2026-04-23 18:15 41.01359 -73.68308 17712 ft 415 kts 39°
2026-04-23 18:15 41.03305 -73.65447 18653 ft 421 kts 39°
2026-04-23 18:15 41.05274 -73.62549 19628 ft 424 kts 39°
2026-04-23 18:15 41.07253 -73.59632 20612 ft 426 kts 39°
2026-04-23 18:16 41.09239 -73.56703 21522 ft 430 kts 39°
2026-04-23 18:16 41.11252 -73.53737 22411 ft 435 kts 39°
2026-04-23 18:16 41.13285 -73.50739 23301 ft 439 kts 39°
2026-04-23 18:17 41.17396 -73.44662 24872 ft 446 kts 39°
2026-04-23 18:17 41.19473 -73.41584 25621 ft 449 kts 39°
2026-04-23 18:17 41.21562 -73.38487 26371 ft 452 kts 38°
2026-04-23 18:17 41.23668 -73.35362 27078 ft 455 kts 38°
2026-04-23 18:18 41.25788 -73.32213 27778 ft 459 kts 38°
2026-04-23 18:18 41.27924 -73.29036 28484 ft 462 kts 38°
2026-04-23 18:18 41.30064 -73.25845 29293 ft 462 kts 38°
2026-04-23 18:18 41.32204 -73.22654 29941 ft 463 kts 38°
2026-04-23 18:19 41.34354 -73.19449 30562 ft 463 kts 37°
2026-04-23 18:19 41.36456 -73.16300 31322 ft 459 kts 38°
2026-04-23 18:19 41.38460 -73.12941 32352 ft 457 kts 41°
2026-04-23 18:19 41.40202 -73.09382 33251 ft 461 kts 46°
2026-04-23 18:20 41.41812 -73.05696 33877 ft 460 kts 46°
2026-04-23 18:20 41.43413 -73.02010 34341 ft 461 kts 47°
2026-04-23 18:20 41.45021 -72.98317 34791 ft 461 kts 47°
2026-04-23 18:20 41.46634 -72.94629 35318 ft 460 kts 47°
2026-04-23 18:21 41.48236 -72.90980 35659 ft 463 kts 47°
2026-04-23 18:21 41.49867 -72.87271 36036 ft 464 kts 47°
2026-04-23 18:21 41.51500 -72.83552 36491 ft 463 kts 48°
2026-04-23 18:21 41.53125 -72.79846 36943 ft 463 kts 48°
2026-04-23 18:22 41.54751 -72.76133 37364 ft 463 kts 49°
2026-04-23 18:22 41.56377 -72.72416 37796 ft 464 kts 49°
2026-04-23 18:22 41.58004 -72.68695 38208 ft 464 kts 49°
2026-04-23 18:22 41.59629 -72.64972 38599 ft 464 kts 50°
2026-04-23 18:23 41.60701 -72.62512 38803 ft 464 kts 50°
2026-04-23 18:23 41.64533 -72.53725 39252 ft 471 kts 50°
2026-04-23 18:24 41.67906 -72.46198 39798 ft 472 kts 50°
2026-04-23 18:24 41.69613 -72.42434 40041 ft 473 kts 50°
2026-04-23 18:24 41.71320 -72.38666 40292 ft 474 kts 50°
2026-04-23 18:25 41.74734 -72.31091 40773 ft 476 kts 50°
2026-04-23 18:25 41.78147 -72.23479 40938 ft 483 kts 51°
2026-04-23 18:26 41.81599 -72.15738 40937 ft 483 kts 51°
2026-04-23 18:26 41.85018 -72.08047 40940 ft 478 kts 51°
2026-04-23 18:27 41.88413 -72.00409 40930 ft 476 kts 51°
2026-04-23 18:27 41.91798 -71.92775 40936 ft 476 kts 51°
2026-04-23 18:28 41.95191 -71.85111 40938 ft 481 kts 51°
2026-04-23 18:28 41.98730 -71.77436 40925 ft 485 kts 49°
2026-04-23 18:29 42.02408 -71.69818 40931 ft 487 kts 49°
2026-04-23 18:29 42.06085 -71.62153 40919 ft 488 kts 49°
2026-04-23 18:30 42.09737 -71.54451 40935 ft 488 kts 49°
2026-04-23 18:30 42.13383 -71.46722 40931 ft 489 kts 50°
2026-04-23 18:31 42.17019 -71.38994 40929 ft 488 kts 50°
2026-04-23 18:31 42.20650 -71.31260 40921 ft 487 kts 50°
2026-04-23 18:32 42.24267 -71.23541 40905 ft 487 kts 50°
2026-04-23 18:32 42.27878 -71.15812 40920 ft 487 kts 50°
2026-04-23 18:33 42.31483 -71.08078 40905 ft 486 kts 50°
2026-04-23 18:33 42.34753 -71.00013 40901 ft 498 kts 61°
2026-04-23 18:34 42.36560 -70.90852 40904 ft 513 kts 76°
2026-04-23 18:34 42.37360 -70.81252 40913 ft 515 kts 78°
2026-04-23 18:35 42.38077 -70.71620 40927 ft 515 kts 78°
2026-04-23 18:35 42.38839 -70.61995 40897 ft 514 kts 77°
2026-04-23 18:36 42.39634 -70.52381 40906 ft 514 kts 78°
2026-04-23 18:36 42.40432 -70.42768 40914 ft 514 kts 78°
2026-04-23 18:37 42.41218 -70.33160 40899 ft 514 kts 78°
2026-04-23 18:37 42.41990 -70.23591 40900 ft 514 kts 78°
2026-04-23 18:38 42.42761 -70.13932 40914 ft 514 kts 78°
2026-04-23 18:38 42.43519 -70.04314 40897 ft 515 kts 78°
2026-04-23 18:39 42.44270 -69.94691 40913 ft 516 kts 78°
2026-04-23 18:39 42.45014 -69.85054 40919 ft 516 kts 79°
2026-04-23 18:40 42.45756 -69.75337 40897 ft 518 kts 79°
2026-04-23 18:40 42.46485 -69.65670 40892 ft 518 kts 79°
2026-04-23 18:41 42.47212 -69.55928 40881 ft 518 kts 79°
2026-04-23 18:41 42.47926 -69.46245 40887 ft 519 kts 79°
2026-04-23 18:42 42.48636 -69.36506 40884 ft 519 kts 79°
2026-04-23 18:42 42.49335 -69.26793 40884 ft 519 kts 79°
2026-04-23 18:43 42.50031 -69.17011 40911 ft 520 kts 80°
2026-04-23 18:43 42.50714 -69.07291 40889 ft 520 kts 80°
2026-04-23 18:44 42.51390 -68.97559 40880 ft 519 kts 80°
2026-04-23 18:44 42.52059 -68.87793 40882 ft 519 kts 80°
2026-04-23 18:45 42.52719 -68.78043 40881 ft 519 kts 80°
2026-04-23 18:45 42.53368 -68.68344 40876 ft 518 kts 80°
2026-04-23 18:46 42.54011 -68.58585 40874 ft 518 kts 80°
2026-04-23 18:46 42.54644 -68.48878 40883 ft 518 kts 81°
2026-04-23 18:47 42.55267 -68.39182 40874 ft 518 kts 81°
2026-04-23 18:47 42.55884 -68.29457 40866 ft 517 kts 81°
2026-04-23 18:48 42.56490 -68.19755 40873 ft 517 kts 81°
2026-04-23 18:48 42.57092 -68.10000 40869 ft 517 kts 81°
2026-04-23 18:49 42.57682 -68.00303 40863 ft 517 kts 81°
2026-04-23 18:49 42.58264 -67.90599 40867 ft 516 kts 81°
2026-04-23 18:50 42.58648 -67.84135 40864 ft 516 kts 82°
2026-04-23 18:50 42.59406 -67.71154 40864 ft 516 kts 82°
2026-04-23 18:51 42.59962 -67.61477 40865 ft 516 kts 82°
2026-04-23 18:51 42.60511 -67.51771 40865 ft 517 kts 82°
2026-04-23 18:52 42.61055 -67.42005 40858 ft 517 kts 82°
2026-04-23 18:52 42.61589 -67.32276 40858 ft 518 kts 82°
2026-04-23 18:53 42.62028 -67.24158 40858 ft 518 kts 82°
2026-04-23 18:53 42.62547 -67.14431 40867 ft 518 kts 82°
2026-04-23 18:54 42.63210 -67.04702 40858 ft 515 kts 75°
2026-04-23 18:54 42.65740 -66.94033 40871 ft 506 kts 60°
2026-04-23 18:55 42.68571 -66.87089 40868 ft 502 kts 55°
2026-04-23 18:55 42.72091 -66.78922 40878 ft 502 kts 55°
2026-04-23 18:56 42.75618 -66.70659 40871 ft 502 kts 56°
2026-04-23 18:56 42.79066 -66.62447 40870 ft 503 kts 56°
2026-04-23 18:57 42.82528 -66.54129 40874 ft 503 kts 56°
2026-04-23 18:57 42.85946 -66.45891 40876 ft 502 kts 57°
2026-04-23 18:58 42.89391 -66.37568 40891 ft 502 kts 57°
2026-04-23 18:58 42.92813 -66.29285 40884 ft 502 kts 57°
2026-04-23 18:59 42.96250 -66.20939 40873 ft 502 kts 57°
2026-04-23 18:59 42.99659 -66.12639 40879 ft 502 kts 57°
2026-04-23 19:00 43.03059 -66.04337 40889 ft 502 kts 57°
2026-04-23 19:00 43.06479 -65.95961 40883 ft 502 kts 57°
2026-04-23 19:01 43.09868 -65.87639 40890 ft 502 kts 57°
2026-04-23 19:01 43.13253 -65.79299 40883 ft 502 kts 57°
2026-04-23 19:02 43.16631 -65.70955 40891 ft 502 kts 58°
2026-04-23 19:02 43.20020 -65.62559 40886 ft 502 kts 58°
2026-04-23 19:03 43.23386 -65.54196 40895 ft 502 kts 58°
2026-04-23 19:03 43.26757 -65.45795 40903 ft 503 kts 58°
2026-04-23 19:04 43.30133 -65.37357 40893 ft 503 kts 58°
2026-04-23 19:04 43.33490 -65.28940 40889 ft 503 kts 58°
2026-04-23 19:05 43.36837 -65.20525 40885 ft 504 kts 58°
2026-04-23 19:05 43.40204 -65.12035 40903 ft 504 kts 58°
2026-04-23 19:06 43.43543 -65.03590 40883 ft 504 kts 59°
2026-04-23 19:06 43.46872 -64.95144 40886 ft 504 kts 59°
2026-04-23 19:07 43.50219 -64.86630 40897 ft 504 kts 59°
2026-04-23 19:07 43.53547 -64.78137 40902 ft 504 kts 59°
2026-04-23 19:08 43.56867 -64.69638 40893 ft 504 kts 59°
2026-04-23 19:08 43.60179 -64.61135 40901 ft 504 kts 59°
2026-04-23 19:09 43.63507 -64.52566 40894 ft 504 kts 59°
2026-04-23 19:09 43.66807 -64.44045 40899 ft 504 kts 59°
2026-04-23 19:10 43.70118 -64.35465 40893 ft 504 kts 59°
2026-04-23 19:10 43.73402 -64.26932 40890 ft 504 kts 60°
2026-04-23 19:11 43.76702 -64.18332 40884 ft 504 kts 60°
2026-04-23 19:11 43.79978 -64.09767 40886 ft 504 kts 60°
2026-04-23 19:12 43.82708 -64.02610 40887 ft 504 kts 60°
2026-04-23 19:12 43.86507 -63.92618 40885 ft 504 kts 60°
2026-04-23 19:13 43.89791 -63.83953 40894 ft 504 kts 60°
2026-04-23 19:13 43.93047 -63.75336 40885 ft 504 kts 60°
2026-04-23 19:14 43.96275 -63.66766 40883 ft 504 kts 60°
2026-04-23 19:14 43.99519 -63.58129 40882 ft 505 kts 60°
2026-04-23 19:15 44.02755 -63.49483 40890 ft 505 kts 61°
2026-04-23 19:15 44.05988 -63.40822 40880 ft 505 kts 61°
2026-04-23 19:16 44.09213 -63.32150 40878 ft 505 kts 61°
2026-04-23 19:16 44.12433 -63.23469 40878 ft 505 kts 61°
2026-04-23 19:17 44.17246 -63.10441 40879 ft 505 kts 62°
2026-04-23 19:17 44.20449 -63.01735 40879 ft 504 kts 62°
2026-04-23 19:18 44.23645 -62.93023 40878 ft 504 kts 62°
2026-04-23 19:18 44.26832 -62.84307 40889 ft 504 kts 62°
2026-04-23 19:19 44.31599 -62.71219 40879 ft 504 kts 62°
2026-04-23 19:20 44.36349 -62.58113 40877 ft 504 kts 62°
2026-04-23 19:20 44.39505 -62.49371 40882 ft 504 kts 62°
2026-04-23 19:21 44.44209 -62.36291 40876 ft 504 kts 62°
2026-04-23 19:22 44.47343 -62.27540 40875 ft 504 kts 62°
2026-04-23 19:22 44.52028 -62.14408 40876 ft 503 kts 63°
2026-04-23 19:23 44.55162 -62.05587 40874 ft 503 kts 63°
2026-04-23 19:24 44.59803 -61.92471 40872 ft 503 kts 63°
2026-04-23 19:24 44.64462 -61.79240 40875 ft 503 kts 63°
2026-04-23 19:25 44.70638 -61.61602 40869 ft 504 kts 63°
2026-04-23 19:26 44.75279 -61.48271 40872 ft 504 kts 64°
2026-04-23 19:27 44.82939 -61.26123 40865 ft 505 kts 64°
2026-04-23 19:28 44.89068 -61.08268 40868 ft 505 kts 64°
2026-04-23 19:29 44.93624 -60.94918 40866 ft 504 kts 64°
2026-04-23 19:30 44.98160 -60.81561 40862 ft 504 kts 64°
2026-04-23 19:31 45.02675 -60.68197 40863 ft 503 kts 64°
2026-04-23 19:31 45.05685 -60.59253 40860 ft 503 kts 64°
2026-04-23 19:32 45.08686 -60.50301 40860 ft 503 kts 64°
2026-04-23 19:32 45.11688 -60.41319 40864 ft 503 kts 65°
2026-04-23 19:33 45.14672 -60.32359 40857 ft 503 kts 65°
2026-04-23 19:33 45.19128 -60.18924 40862 ft 502 kts 65°
2026-04-23 19:34 45.22084 -60.09974 40859 ft 502 kts 65°
2026-04-23 19:35 45.26508 -59.96519 40851 ft 501 kts 65°
2026-04-23 19:35 45.29449 -59.87537 40861 ft 501 kts 65°
2026-04-23 19:36 45.32376 -59.78567 40858 ft 501 kts 65°
2026-04-23 19:36 45.35295 -59.69593 40860 ft 500 kts 65°
2026-04-23 19:37 45.38208 -59.60604 40863 ft 500 kts 66°
2026-04-23 19:37 45.41100 -59.51649 40855 ft 500 kts 66°
2026-04-23 19:38 45.43996 -59.42650 40862 ft 499 kts 66°
2026-04-23 19:38 45.46873 -59.33679 40866 ft 499 kts 66°
2026-04-23 19:39 45.49767 -59.24626 40861 ft 499 kts 66°
2026-04-23 19:39 45.52625 -59.15652 40863 ft 499 kts 66°
2026-04-23 19:40 45.55499 -59.06597 40867 ft 499 kts 66°
2026-04-23 19:40 45.58348 -58.97591 40863 ft 499 kts 66°
2026-04-23 19:41 45.61190 -58.88572 40869 ft 499 kts 66°
2026-04-23 19:41 45.63557 -58.81039 40867 ft 499 kts 66°
2026-04-23 19:42 45.66397 -58.71969 40864 ft 499 kts 66°
2026-04-23 19:42 45.69230 -58.62891 40870 ft 499 kts 66°
2026-04-23 19:43 45.72043 -58.53845 40868 ft 498 kts 67°
2026-04-23 19:43 45.74840 -58.44815 40868 ft 498 kts 67°
2026-04-23 19:44 45.77634 -58.35766 40869 ft 498 kts 67°
2026-04-23 19:44 45.80434 -58.26664 40868 ft 498 kts 67°
2026-04-23 19:45 45.83223 -58.17565 40872 ft 497 kts 67°
2026-04-23 19:45 45.85986 -58.08519 40871 ft 497 kts 67°
2026-04-23 19:46 45.88762 -57.99399 40866 ft 497 kts 67°
2026-04-23 19:46 45.91524 -57.90291 40874 ft 497 kts 67°
2026-04-23 19:47 45.94271 -57.81200 40871 ft 496 kts 68°
2026-04-23 19:47 45.97007 -57.72111 40874 ft 496 kts 68°
2026-04-23 19:48 45.99738 -57.63006 40873 ft 496 kts 68°
2026-04-23 19:48 46.02445 -57.53948 40873 ft 496 kts 68°
2026-04-23 19:49 46.05184 -57.44752 40872 ft 496 kts 68°
2026-04-23 19:49 46.07879 -57.35670 40876 ft 496 kts 68°
2026-04-23 19:50 46.10578 -57.26539 40867 ft 496 kts 68°
2026-04-23 19:50 46.13272 -57.17392 40871 ft 496 kts 68°
2026-04-23 19:51 46.15957 -57.08242 40875 ft 496 kts 68°
2026-04-23 19:51 46.18647 -56.99042 40869 ft 497 kts 68°
2026-04-23 19:52 46.21337 -56.89805 40868 ft 497 kts 69°
2026-04-23 19:52 46.24006 -56.80610 40869 ft 497 kts 69°
2026-04-23 19:53 46.26650 -56.71464 40857 ft 497 kts 69°
2026-04-23 19:53 46.29320 -56.62192 40868 ft 497 kts 69°
2026-04-23 19:54 46.31967 -56.52966 40861 ft 497 kts 69°
2026-04-23 19:54 46.34606 -56.43736 40865 ft 497 kts 69°
2026-04-23 19:55 46.37238 -56.34495 40864 ft 497 kts 69°
2026-04-23 19:55 46.39871 -56.25213 40860 ft 497 kts 69°
2026-04-23 19:56 46.42474 -56.16000 40865 ft 497 kts 69°
2026-04-23 19:56 46.45104 -56.06658 40861 ft 497 kts 70°
2026-04-23 19:57 46.47703 -55.97394 40871 ft 497 kts 69°
2026-04-23 19:57 46.50296 -55.88111 40865 ft 497 kts 69°
2026-04-23 19:58 46.52882 -55.78819 40868 ft 497 kts 70°
2026-04-23 19:58 46.55485 -55.69429 40864 ft 497 kts 70°
2026-04-23 19:59 46.58050 -55.60142 40868 ft 497 kts 70°
2026-04-23 19:59 46.60626 -55.50778 40874 ft 497 kts 70°
2026-04-23 20:00 46.63169 -55.41495 40859 ft 497 kts 70°
2026-04-23 20:00 46.65713 -55.32177 40862 ft 496 kts 70°
2026-04-23 20:01 46.68247 -55.22855 40875 ft 496 kts 70°
2026-04-23 20:01 46.70790 -55.13466 40860 ft 496 kts 70°
2026-04-23 20:02 46.73308 -55.04131 40866 ft 495 kts 71°
2026-04-23 20:02 46.75804 -54.94840 40857 ft 494 kts 71°
2026-04-23 20:03 46.78321 -54.85433 40860 ft 493 kts 71°
2026-04-23 20:03 46.80801 -54.76130 40859 ft 493 kts 71°
2026-04-23 20:04 46.83272 -54.66825 40854 ft 492 kts 71°
2026-04-23 20:04 46.85727 -54.57540 40855 ft 491 kts 71°
2026-04-23 20:05 46.88190 -54.48186 40856 ft 491 kts 71°
2026-04-23 20:05 46.90635 -54.38866 40857 ft 491 kts 71°
2026-04-23 20:06 46.93067 -54.29559 40855 ft 490 kts 72°
2026-04-23 20:06 46.95477 -54.20298 40856 ft 489 kts 72°
2026-04-23 20:07 46.97883 -54.11015 40847 ft 489 kts 71°
2026-04-23 20:07 47.00290 -54.01697 40855 ft 489 kts 71°
2026-04-23 20:08 47.02703 -53.92299 40843 ft 489 kts 71°
2026-04-23 20:08 47.05089 -53.82984 40855 ft 489 kts 71°
2026-04-23 20:09 47.07469 -53.73652 40855 ft 489 kts 72°
2026-04-23 20:09 47.09835 -53.64338 40845 ft 489 kts 72°
2026-04-23 20:10 47.11806 -53.56552 40847 ft 489 kts 71°
2026-04-23 20:10 47.14555 -53.45640 40839 ft 488 kts 72°
2026-04-23 20:11 47.16909 -53.36255 40841 ft 487 kts 72°
2026-04-23 20:11 47.19240 -53.26928 40835 ft 487 kts 72°
2026-04-23 20:12 47.21555 -53.17623 40839 ft 486 kts 72°
2026-04-23 20:12 47.23870 -53.08276 40837 ft 486 kts 72°
2026-04-23 20:13 47.26192 -52.98866 40834 ft 487 kts 72°
2026-04-23 20:13 47.28488 -52.89521 40831 ft 487 kts 72°
2026-04-23 20:14 47.30788 -52.80121 40829 ft 487 kts 73°
2026-04-23 20:14 47.33088 -52.70682 40808 ft 488 kts 72°
2026-04-23 20:15 47.35355 -52.61341 40820 ft 487 kts 72°
2026-04-23 20:15 47.37636 -52.51899 40814 ft 487 kts 72°
2026-04-23 20:16 47.39895 -52.42509 40830 ft 486 kts 72°
2026-04-23 20:16 47.42141 -52.33132 40828 ft 486 kts 72°
2026-04-23 20:17 47.44399 -52.23666 40819 ft 486 kts 73°
2026-04-23 20:17 47.46635 -52.14250 40823 ft 486 kts 73°
2026-04-23 20:18 47.48873 -52.04788 40821 ft 486 kts 73°
2026-04-23 20:18 47.51126 -51.95406 40819 ft 487 kts 72°
2026-04-23 20:19 47.53562 -51.86074 40807 ft 487 kts 71°
2026-04-23 20:19 47.56026 -51.76745 40825 ft 487 kts 71°
2026-04-23 20:20 47.58459 -51.67396 40827 ft 487 kts 71°
2026-04-23 20:20 47.60880 -51.57981 40821 ft 487 kts 71°
2026-04-23 20:21 47.63278 -51.48601 40831 ft 488 kts 71°
2026-04-23 20:21 47.65669 -51.39213 40820 ft 488 kts 71°
2026-04-23 20:22 47.68053 -51.29818 40821 ft 488 kts 71°
2026-04-23 20:22 47.70450 -51.20337 40832 ft 488 kts 72°
2026-04-23 20:23 47.72830 -51.10883 40828 ft 488 kts 72°
2026-04-23 20:23 47.75189 -51.01469 40814 ft 488 kts 72°
2026-04-23 20:24 47.77544 -50.92037 40823 ft 487 kts 72°
2026-04-23 20:24 47.79894 -50.82581 40826 ft 486 kts 72°
2026-04-23 20:25 47.82218 -50.73193 40814 ft 486 kts 72°
2026-04-23 20:25 47.84552 -50.63720 40809 ft 486 kts 72°
2026-04-23 20:26 47.86873 -50.54264 40821 ft 485 kts 72°
2026-04-23 20:26 47.89182 -50.44816 40826 ft 485 kts 72°
2026-04-23 20:27 47.91464 -50.35440 40825 ft 485 kts 72°
2026-04-23 20:27 47.93762 -50.25955 40824 ft 485 kts 72°
2026-04-23 20:28 47.96036 -50.16528 40820 ft 484 kts 72°
2026-04-23 20:28 47.98302 -50.07102 40825 ft 483 kts 72°
2026-04-23 20:29 48.00399 -49.97712 40831 ft 481 kts 78°
2026-04-23 20:29 48.01835 -49.87981 40825 ft 480 kts 80°
2026-04-23 20:30 48.03192 -49.78207 40817 ft 480 kts 80°
2026-04-23 20:30 48.05253 -49.63566 40828 ft 480 kts 80°
2026-04-23 20:31 48.06639 -49.53804 40821 ft 480 kts 80°
2026-04-23 20:31 48.07788 -49.45687 40817 ft 480 kts 80°
2026-04-23 20:32 48.09162 -49.35905 40819 ft 481 kts 80°
2026-04-23 20:32 48.10529 -49.26111 40803 ft 481 kts 80°
2026-04-23 20:33 48.11886 -49.16319 40815 ft 480 kts 80°
2026-04-23 20:33 48.13233 -49.06528 40804 ft 481 kts 81°
2026-04-23 20:34 48.14574 -48.96722 40815 ft 481 kts 81°
2026-04-23 20:34 48.15907 -48.86905 40812 ft 481 kts 81°
2026-04-23 20:35 48.17232 -48.77076 40810 ft 481 kts 81°
2026-04-23 20:35 48.18550 -48.67238 40807 ft 482 kts 81°
2026-04-23 20:36 48.19860 -48.57388 40805 ft 482 kts 81°
2026-04-23 20:36 48.21162 -48.47537 40806 ft 482 kts 81°
2026-04-23 20:37 48.22456 -48.37668 40800 ft 482 kts 81°
2026-04-23 20:37 48.23732 -48.27877 40788 ft 482 kts 81°
2026-04-23 20:38 48.25009 -48.17997 40796 ft 482 kts 81°
2026-04-23 20:38 48.26278 -48.08121 40800 ft 482 kts 81°
2026-04-23 20:39 48.27615 -47.97630 40801 ft 483 kts 81°
2026-04-23 20:39 48.28868 -47.87726 40791 ft 483 kts 81°
2026-04-23 20:40 48.30113 -47.77815 40775 ft 483 kts 81°
2026-04-23 20:40 48.31351 -47.67887 40787 ft 483 kts 81°
2026-04-23 20:41 48.32571 -47.58030 40778 ft 483 kts 82°
2026-04-23 20:41 48.33792 -47.48095 40793 ft 484 kts 82°
2026-04-23 20:42 48.35005 -47.38145 40794 ft 484 kts 82°
2026-04-23 20:42 48.36209 -47.28195 40766 ft 484 kts 82°
2026-04-23 20:43 48.37406 -47.18224 40784 ft 485 kts 82°
2026-04-23 20:43 48.38596 -47.08239 40782 ft 485 kts 82°
2026-04-23 20:44 48.39777 -46.98253 40780 ft 485 kts 82°
2026-04-23 20:44 48.40953 -46.88233 40783 ft 485 kts 82°
2026-04-23 20:45 48.42118 -46.78221 40772 ft 486 kts 82°
2026-04-23 20:45 48.43275 -46.68203 40778 ft 485 kts 82°
2026-04-23 20:46 48.44423 -46.58181 40778 ft 486 kts 82°
2026-04-23 20:46 48.45563 -46.48157 40786 ft 486 kts 82°
2026-04-23 20:47 48.46693 -46.38128 40780 ft 486 kts 82°
2026-04-23 20:47 48.47816 -46.28085 40774 ft 486 kts 82°
2026-04-23 20:48 48.48929 -46.18047 40780 ft 486 kts 82°
2026-04-23 20:48 48.50034 -46.08001 40781 ft 486 kts 82°
2026-04-23 20:49 48.51129 -45.97956 40785 ft 486 kts 82°
2026-04-23 20:49 48.52217 -45.87892 40783 ft 486 kts 82°
2026-04-23 20:50 48.53296 -45.77828 40779 ft 486 kts 82°
2026-04-23 20:50 48.54367 -45.67759 40789 ft 486 kts 82°
2026-04-23 20:51 48.55428 -45.57685 40786 ft 486 kts 82°
2026-04-23 20:51 48.56482 -45.47602 40787 ft 486 kts 82°
2026-04-23 20:52 48.57520 -45.37581 40789 ft 486 kts 83°
2026-04-23 20:52 48.58554 -45.27497 40783 ft 486 kts 82°
2026-04-23 20:53 48.59582 -45.17398 40788 ft 486 kts 82°
2026-04-23 20:53 48.60601 -45.07289 40789 ft 487 kts 82°
2026-04-23 20:54 48.61612 -44.97166 40791 ft 487 kts 83°
2026-04-23 20:54 48.62615 -44.87033 40789 ft 487 kts 83°
2026-04-23 20:55 48.63609 -44.76900 40794 ft 488 kts 83°
2026-04-23 20:55 48.64597 -44.66722 40789 ft 488 kts 83°
2026-04-23 20:56 48.65572 -44.56597 40789 ft 488 kts 83°
2026-04-23 20:56 48.66536 -44.46483 40796 ft 488 kts 83°
2026-04-23 20:57 48.67499 -44.36281 40795 ft 488 kts 83°
2026-04-23 20:57 48.68448 -44.26127 40795 ft 488 kts 83°
2026-04-23 20:58 48.69387 -44.15984 40791 ft 488 kts 83°
2026-04-23 20:58 48.70319 -44.05819 40794 ft 488 kts 83°
2026-04-23 20:59 48.71246 -43.95596 40799 ft 488 kts 83°
2026-04-23 20:59 48.72159 -43.85434 40794 ft 489 kts 83°
2026-04-23 21:00 48.73064 -43.75258 40788 ft 489 kts 83°
2026-04-23 21:00 48.73966 -43.65007 40794 ft 489 kts 83°
2026-04-23 21:01 48.74853 -43.54823 40790 ft 489 kts 83°
2026-04-23 21:01 48.75733 -43.44611 40787 ft 490 kts 83°
2026-04-23 21:02 48.76462 -43.36072 40786 ft 490 kts 83°
2026-04-23 21:02 48.77330 -43.25788 40791 ft 490 kts 83°
2026-04-23 21:03 48.78181 -43.15604 40782 ft 490 kts 83°
2026-04-23 21:03 48.79031 -43.05320 40792 ft 490 kts 83°
2026-04-23 21:04 48.79868 -42.95081 40785 ft 490 kts 83°
2026-04-23 21:04 48.80696 -42.84845 40781 ft 490 kts 83°
2026-04-23 21:05 48.81519 -42.74545 40781 ft 491 kts 84°
2026-04-23 21:05 48.82332 -42.64260 40783 ft 491 kts 84°
2026-04-23 21:06 48.83137 -42.53951 40787 ft 491 kts 84°
2026-04-23 21:06 48.83932 -42.43639 40778 ft 492 kts 84°
2026-04-23 21:07 48.84719 -42.33323 40784 ft 492 kts 84°
2026-04-23 21:07 48.85497 -42.22992 40783 ft 492 kts 84°
2026-04-23 21:08 48.86266 -42.12658 40770 ft 493 kts 84°
2026-04-23 21:08 48.87022 -42.02373 40773 ft 494 kts 84°
2026-04-23 21:09 48.87776 -41.91999 40773 ft 494 kts 84°
2026-04-23 21:09 48.88519 -41.81620 40778 ft 495 kts 84°
2026-04-23 21:10 48.89256 -41.71217 40774 ft 495 kts 84°
2026-04-23 21:10 48.89982 -41.60811 40772 ft 495 kts 84°
2026-04-23 21:11 48.90700 -41.50393 40772 ft 496 kts 84°
2026-04-23 21:11 48.91409 -41.39963 40764 ft 496 kts 84°
2026-04-23 21:12 48.92109 -41.29527 40768 ft 496 kts 84°
2026-04-23 21:12 48.92800 -41.19092 40776 ft 496 kts 84°
2026-04-23 21:13 48.93481 -41.08645 40765 ft 496 kts 84°
2026-04-23 21:13 48.94153 -40.98195 40765 ft 497 kts 84°
2026-04-23 21:14 48.94817 -40.87731 40762 ft 497 kts 84°
2026-04-23 21:14 48.95471 -40.77258 40759 ft 497 kts 84°
2026-04-23 21:15 48.96116 -40.66782 40744 ft 497 kts 84°
2026-04-23 21:15 48.96747 -40.56358 40757 ft 498 kts 84°
2026-04-23 21:16 48.97376 -40.45836 40748 ft 498 kts 84°
2026-04-23 21:16 48.97992 -40.35355 40746 ft 498 kts 84°
2026-04-23 21:17 48.98602 -40.24814 40746 ft 499 kts 84°
2026-04-23 21:17 48.99200 -40.14340 40735 ft 499 kts 84°
2026-04-23 21:18 48.99869 -40.03797 40742 ft 497 kts 79°
2026-04-23 21:18 49.01499 -39.93644 40726 ft 495 kts 69°
2026-04-23 21:19 49.03976 -39.83820 40731 ft 494 kts 67°
2026-04-23 21:19 49.06472 -39.74096 40721 ft 494 kts 67°
2026-04-23 21:20 49.08936 -39.64342 40729 ft 495 kts 68°
2026-04-23 21:20 49.11389 -39.54490 40716 ft 495 kts 68°
2026-04-23 21:21 49.13810 -39.44685 40706 ft 495 kts 68°
2026-04-23 21:21 49.16233 -39.34824 40712 ft 495 kts 67°
2026-04-23 21:22 49.18633 -39.25028 40707 ft 494 kts 68°
2026-04-23 21:22 49.21042 -39.15155 40704 ft 494 kts 68°
2026-04-23 21:23 49.23441 -39.05284 40701 ft 494 kts 69°
2026-04-23 21:23 49.25819 -38.95446 40693 ft 494 kts 68°
2026-04-23 21:24 49.28200 -38.85555 40699 ft 494 kts 68°
2026-04-23 21:24 49.30559 -38.75711 40690 ft 494 kts 68°
2026-04-23 21:25 49.32931 -38.65763 40694 ft 494 kts 69°
2026-04-23 21:25 49.35278 -38.55875 40687 ft 495 kts 68°
2026-04-23 21:26 49.37619 -38.45972 40693 ft 495 kts 68°
2026-04-23 21:26 49.39962 -38.36019 40686 ft 494 kts 69°
2026-04-23 21:27 49.42278 -38.26127 40682 ft 493 kts 68°
2026-04-23 21:27 49.44583 -38.16251 40684 ft 492 kts 69°
2026-04-23 21:28 49.46888 -38.06317 40682 ft 492 kts 69°
2026-04-23 21:28 49.49167 -37.96439 40678 ft 492 kts 68°
2026-04-23 21:29 49.51451 -37.86505 40669 ft 491 kts 69°
2026-04-23 21:29 49.53716 -37.76621 40666 ft 490 kts 69°
2026-04-23 21:30 49.55978 -37.66693 40673 ft 490 kts 68°
2026-04-23 21:30 49.58216 -37.56807 40669 ft 490 kts 69°
2026-04-23 21:31 49.60448 -37.46917 40656 ft 489 kts 69°
2026-04-23 21:31 49.62673 -37.37015 40649 ft 489 kts 69°
2026-04-23 21:32 49.64889 -37.27111 40647 ft 488 kts 69°
2026-04-23 21:32 49.67097 -37.17184 40654 ft 488 kts 68°
2026-04-23 21:33 49.69281 -37.07319 40646 ft 487 kts 69°
2026-04-23 21:33 49.71470 -36.97378 40640 ft 486 kts 69°
2026-04-23 21:34 49.73635 -36.87513 40627 ft 485 kts 69°
2026-04-23 21:34 49.75786 -36.77662 40626 ft 485 kts 69°
2026-04-23 21:35 49.77928 -36.67808 40635 ft 484 kts 69°
2026-04-23 21:35 49.80076 -36.57879 40622 ft 484 kts 69°
2026-04-23 21:36 49.83266 -36.43036 40616 ft 485 kts 69°
2026-04-23 21:37 49.85375 -36.33150 40624 ft 485 kts 70°
2026-04-23 21:37 49.87494 -36.23178 40617 ft 486 kts 70°
2026-04-23 21:38 49.89602 -36.13222 40610 ft 487 kts 70°
2026-04-23 21:38 49.91702 -36.03244 40608 ft 488 kts 70°
2026-04-23 21:39 49.93804 -35.93209 40604 ft 488 kts 71°
2026-04-23 21:39 49.95891 -35.83198 40606 ft 489 kts 71°
2026-04-23 21:40 49.97970 -35.73168 40601 ft 488 kts 71°
2026-04-23 21:40 50.00052 -35.63074 40603 ft 488 kts 71°
2026-04-23 21:41 50.02105 -35.53075 40581 ft 487 kts 72°
2026-04-23 21:41 50.04159 -35.43019 40579 ft 486 kts 71°
2026-04-23 21:42 50.06188 -35.33036 40580 ft 484 kts 72°
2026-04-23 21:42 50.08197 -35.23099 40578 ft 482 kts 72°
2026-04-23 21:43 50.10205 -35.13113 40574 ft 481 kts 71°
2026-04-23 21:43 50.12193 -35.03179 40578 ft 481 kts 72°
2026-04-23 21:44 50.14169 -34.93256 40573 ft 480 kts 72°
2026-04-23 21:44 50.16150 -34.83259 40572 ft 480 kts 72°
2026-04-23 21:45 50.18113 -34.73296 40578 ft 480 kts 72°
2026-04-23 21:45 50.20060 -34.63371 40580 ft 480 kts 72°
2026-04-23 21:46 50.22011 -34.53364 40566 ft 480 kts 72°
2026-04-23 21:46 50.23949 -34.43380 40570 ft 481 kts 72°
2026-04-23 21:47 50.25881 -34.33369 40559 ft 481 kts 72°
2026-04-23 21:47 50.27480 -34.25039 40564 ft 482 kts 73°
2026-04-23 21:48 50.29401 -34.14997 40571 ft 482 kts 72°
2026-04-23 21:48 50.31314 -34.04936 40562 ft 483 kts 72°
2026-04-23 21:49 50.33217 -33.94868 40558 ft 482 kts 72°
2026-04-23 21:49 50.35114 -33.84790 40547 ft 482 kts 72°
2026-04-23 21:50 50.36997 -33.74721 40552 ft 482 kts 73°
2026-04-23 21:50 50.38871 -33.64653 40554 ft 481 kts 73°
2026-04-23 21:51 50.40718 -33.54669 40552 ft 479 kts 73°
2026-04-23 21:51 50.42568 -33.44621 40553 ft 479 kts 73°
2026-04-23 21:52 50.44405 -33.34589 40554 ft 479 kts 72°
2026-04-23 21:52 50.46234 -33.24547 40551 ft 479 kts 73°
2026-04-23 21:53 50.48054 -33.14491 40545 ft 479 kts 73°
2026-04-23 21:53 50.49865 -33.04431 40542 ft 479 kts 73°
2026-04-23 21:54 50.51667 -32.94369 40541 ft 479 kts 73°
2026-04-23 21:54 50.53459 -32.84307 40544 ft 479 kts 73°
2026-04-23 21:55 50.55244 -32.74229 40543 ft 478 kts 74°
2026-04-23 21:55 50.57020 -32.64146 40540 ft 478 kts 74°
2026-04-23 21:56 50.58785 -32.54060 40536 ft 478 kts 74°
2026-04-23 21:56 50.60531 -32.44034 40538 ft 478 kts 74°
2026-04-23 21:57 50.62279 -32.33934 40544 ft 478 kts 74°
2026-04-23 21:57 50.64021 -32.23819 40544 ft 478 kts 74°
2026-04-23 21:58 50.65753 -32.13693 40541 ft 479 kts 75°
2026-04-23 21:58 50.67480 -32.03540 40535 ft 479 kts 74°
2026-04-23 21:59 50.69196 -31.93395 40541 ft 478 kts 75°
2026-04-23 21:59 50.70900 -31.83258 40538 ft 478 kts 75°
2026-04-23 22:00 50.73441 -31.68038 40538 ft 478 kts 75°
2026-04-23 22:00 50.75123 -31.57883 40542 ft 477 kts 75°
2026-04-23 22:01 50.76784 -31.47798 40540 ft 476 kts 75°
2026-04-23 22:01 50.78449 -31.37627 40540 ft 475 kts 75°
2026-04-23 22:02 50.80095 -31.27513 40534 ft 475 kts 75°
2026-04-23 22:02 50.81725 -31.17434 40530 ft 475 kts 75°
2026-04-23 22:03 50.83351 -31.07322 40533 ft 475 kts 76°
2026-04-23 22:03 50.84982 -30.97119 40532 ft 476 kts 76°
2026-04-23 22:04 50.86593 -30.86970 40532 ft 476 kts 76°
2026-04-23 22:04 50.88191 -30.76849 40529 ft 476 kts 76°
2026-04-23 22:05 50.89792 -30.66639 40525 ft 476 kts 76°
2026-04-23 22:05 50.91371 -30.56514 40524 ft 475 kts 76°
2026-04-23 22:06 50.92952 -30.46306 40521 ft 475 kts 76°
2026-04-23 22:06 50.94515 -30.36153 40529 ft 475 kts 76°
2026-04-23 22:07 50.96068 -30.25997 40528 ft 475 kts 76°
2026-04-23 22:07 50.97617 -30.15809 40525 ft 476 kts 77°
2026-04-23 22:08 50.99157 -30.05622 40522 ft 476 kts 77°
2026-04-23 22:08 51.00683 -29.95396 40520 ft 476 kts 77°
2026-04-23 22:09 51.02160 -29.85178 40524 ft 476 kts 77°
2026-04-23 22:09 51.03631 -29.74876 40524 ft 476 kts 77°
2026-04-23 22:10 51.05088 -29.64635 40522 ft 476 kts 78°
2026-04-23 22:10 51.06533 -29.54433 40522 ft 475 kts 78°
2026-04-23 22:11 51.07982 -29.44134 40523 ft 475 kts 78°
2026-04-23 22:11 51.09414 -29.33896 40523 ft 476 kts 78°
2026-04-23 22:12 51.10837 -29.23645 40524 ft 476 kts 78°
2026-04-23 22:12 51.12261 -29.13315 40516 ft 476 kts 78°
2026-04-23 22:13 51.13662 -29.03084 40519 ft 475 kts 78°
2026-04-23 22:13 51.15065 -28.92759 40517 ft 474 kts 78°
2026-04-23 22:14 51.16449 -28.82511 40524 ft 474 kts 78°
2026-04-23 22:14 51.17821 -28.72270 40524 ft 473 kts 78°
2026-04-23 22:15 51.19192 -28.61973 40523 ft 473 kts 79°
2026-04-23 22:15 51.20543 -28.51744 40530 ft 472 kts 79°
2026-04-23 22:16 51.21884 -28.41520 40528 ft 472 kts 79°
2026-04-23 22:16 51.23223 -28.31242 40532 ft 473 kts 79°
2026-04-23 22:17 51.24557 -28.20916 40523 ft 474 kts 80°
2026-04-23 22:17 51.25874 -28.10643 40526 ft 473 kts 79°
2026-04-23 22:18 51.27184 -28.00375 40528 ft 473 kts 80°
2026-04-23 22:18 51.28488 -27.90057 40531 ft 472 kts 80°
2026-04-23 22:19 51.29777 -27.79786 40534 ft 472 kts 80°
2026-04-23 22:19 51.31058 -27.69502 40533 ft 472 kts 81°
2026-04-23 22:20 51.32338 -27.59139 40520 ft 473 kts 81°
2026-04-23 22:20 51.33598 -27.48855 40529 ft 473 kts 80°
2026-04-23 22:21 51.34854 -27.38536 40530 ft 474 kts 81°
2026-04-23 22:21 51.36108 -27.28139 40523 ft 474 kts 82°
2026-04-23 22:22 51.37347 -27.17815 40540 ft 473 kts 81°
2026-04-23 22:22 51.38579 -27.07456 40539 ft 472 kts 82°
2026-04-23 22:23 51.39791 -26.97171 40547 ft 471 kts 82°
2026-04-23 22:23 51.41000 -26.86830 40545 ft 471 kts 81°
2026-04-23 22:24 51.42198 -26.76506 40533 ft 471 kts 82°
2026-04-23 22:24 51.43379 -26.66232 40536 ft 471 kts 82°
2026-04-23 22:25 51.44555 -26.55930 40553 ft 470 kts 82°
2026-04-23 22:25 51.45723 -26.45623 40556 ft 470 kts 83°
2026-04-23 22:26 51.46887 -26.35262 40566 ft 470 kts 83°
2026-04-23 22:26 51.48032 -26.24972 40555 ft 470 kts 83°
2026-04-23 22:27 51.49171 -26.14654 40562 ft 470 kts 84°
2026-04-23 22:27 51.50299 -26.04344 40584 ft 470 kts 82°
2026-04-23 22:28 51.51427 -25.93966 40572 ft 470 kts 83°
2026-04-23 22:28 51.52537 -25.83648 40567 ft 471 kts 84°
2026-04-23 22:29 51.53638 -25.73323 40586 ft 470 kts 83°
2026-04-23 22:29 51.54739 -25.62918 40599 ft 470 kts 82°
2026-04-23 22:30 51.55820 -25.52603 40604 ft 470 kts 83°
2026-04-23 22:30 51.56890 -25.42291 40612 ft 469 kts 84°
2026-04-23 22:31 51.57961 -25.31915 40607 ft 469 kts 84°
2026-04-23 22:31 51.59012 -25.21598 40616 ft 469 kts 84°
2026-04-23 22:32 51.60055 -25.11273 40609 ft 469 kts 83°
2026-04-23 22:32 51.61095 -25.00902 40607 ft 469 kts 83°
2026-04-23 22:33 51.62122 -24.90559 40616 ft 470 kts 83°
2026-04-23 22:33 51.63146 -24.80147 40622 ft 470 kts 84°
2026-04-23 22:34 51.64155 -24.69797 40622 ft 470 kts 84°
2026-04-23 22:34 51.65157 -24.59420 40647 ft 470 kts 85°
2026-04-23 22:35 51.66150 -24.49021 40652 ft 470 kts 84°
2026-04-23 22:35 51.67134 -24.38626 40636 ft 469 kts 85°
2026-04-23 22:36 51.68108 -24.28240 40667 ft 469 kts 86°
2026-04-23 22:36 51.69073 -24.17840 40672 ft 469 kts 85°
2026-04-23 22:37 51.70031 -24.07406 40691 ft 470 kts 85°
2026-04-23 22:37 51.70821 -23.98720 40684 ft 471 kts 85°
2026-04-23 22:38 51.71916 -23.86564 40689 ft 471 kts 85°
2026-04-23 22:38 51.72699 -23.77793 40694 ft 471 kts 86°
2026-04-23 22:39 51.73622 -23.67335 40710 ft 471 kts 86°
2026-04-23 22:39 51.74537 -23.56870 40705 ft 471 kts 86°
2026-04-23 22:40 51.75443 -23.46402 40718 ft 471 kts 85°
2026-04-23 22:41 51.76775 -23.30796 40735 ft 470 kts 86°
2026-04-23 22:41 51.77655 -23.20344 40739 ft 470 kts 86°
2026-04-23 22:42 51.78525 -23.09882 40745 ft 470 kts 86°
2026-04-23 22:42 51.79387 -22.99411 40746 ft 471 kts 86°
2026-04-23 22:43 51.80241 -22.88919 40749 ft 471 kts 86°
2026-04-23 22:43 51.81089 -22.78396 40763 ft 472 kts 86°
2026-04-23 22:44 51.81927 -22.67863 40773 ft 472 kts 86°
2026-04-23 22:44 51.82756 -22.57329 40758 ft 473 kts 86°
2026-04-23 22:45 51.83575 -22.46788 40785 ft 473 kts 86°
2026-04-23 22:45 51.84379 -22.36323 40779 ft 472 kts 86°
2026-04-23 22:46 51.85176 -22.25832 40797 ft 472 kts 86°
2026-04-23 22:46 51.85966 -22.15291 40798 ft 473 kts 87°
2026-04-23 22:47 51.86751 -22.04695 40814 ft 473 kts 87°
2026-04-23 22:47 51.87521 -21.94160 40801 ft 473 kts 87°
2026-04-23 22:48 51.88282 -21.83622 40815 ft 473 kts 87°
2026-04-23 22:48 51.89038 -21.73028 40837 ft 473 kts 87°
2026-04-23 22:49 51.89781 -21.62471 40837 ft 473 kts 87°
2026-04-23 22:49 51.90513 -21.51931 40847 ft 473 kts 87°
2026-04-23 22:50 51.91242 -21.41306 40830 ft 472 kts 88°
2026-04-23 22:50 51.91953 -21.30793 40853 ft 472 kts 88°
2026-04-23 22:51 51.92660 -21.20197 40859 ft 471 kts 88°
2026-04-23 22:51 51.93353 -21.09672 40871 ft 471 kts 88°
2026-04-23 22:52 51.94039 -20.99085 40871 ft 471 kts 88°
2026-04-23 22:52 51.94714 -20.88542 40872 ft 470 kts 88°
2026-04-23 22:53 51.95377 -20.78035 40877 ft 470 kts 88°
2026-04-23 22:53 51.96033 -20.67481 40894 ft 470 kts 88°
2026-04-23 22:54 51.96675 -20.56993 40900 ft 470 kts 88°
2026-04-23 22:54 51.97313 -20.46417 40907 ft 469 kts 88°
2026-04-23 22:55 51.97939 -20.35886 40907 ft 469 kts 88°
2026-04-23 22:55 51.98553 -20.25386 40918 ft 469 kts 89°
2026-04-23 22:56 51.99163 -20.14798 40912 ft 470 kts 89°
2026-04-23 22:56 51.99761 -20.04285 40916 ft 470 kts 89°
2026-04-23 22:57 52.00191 -19.93669 40912 ft 468 kts 92°
2026-04-23 22:57 52.00388 -19.83149 40924 ft 468 kts 92°
2026-04-23 22:58 52.00559 -19.72613 40935 ft 468 kts 92°
2026-04-23 22:58 52.00741 -19.62018 40937 ft 468 kts 92°
2026-04-23 22:59 52.00923 -19.51485 40949 ft 468 kts 92°
2026-04-23 22:59 52.01100 -19.40945 40925 ft 468 kts 92°
2026-04-23 23:00 52.01267 -19.30406 40951 ft 468 kts 92°
2026-04-23 23:00 52.01424 -19.19816 40963 ft 468 kts 92°
2026-04-23 23:01 52.01570 -19.09298 40974 ft 468 kts 93°
2026-04-23 23:01 52.01708 -18.98689 40964 ft 468 kts 93°
2026-04-23 23:02 52.01837 -18.88158 40972 ft 467 kts 93°
2026-04-23 23:02 52.01956 -18.77582 40968 ft 467 kts 93°
2026-04-23 23:03 52.02064 -18.67089 40987 ft 467 kts 93°
2026-04-23 23:03 52.02164 -18.56498 40987 ft 467 kts 93°
2026-04-23 23:04 52.02255 -18.45981 40994 ft 467 kts 93°
2026-04-23 23:04 52.02336 -18.35472 40984 ft 466 kts 94°
2026-04-23 23:05 52.02407 -18.24895 41000 ft 466 kts 94°
2026-04-23 23:05 52.02469 -18.14419 41003 ft 466 kts 94°
2026-04-23 23:06 52.02522 -18.03857 41007 ft 466 kts 94°
2026-04-23 23:06 52.02565 -17.93375 41009 ft 466 kts 94°
2026-04-23 23:07 52.02599 -17.82898 41016 ft 465 kts 94°
2026-04-23 23:07 52.02624 -17.72356 41014 ft 465 kts 94°
2026-04-23 23:08 52.02639 -17.61885 41020 ft 465 kts 94°
2026-04-23 23:08 52.02644 -17.51397 41023 ft 465 kts 94°
2026-04-23 23:09 52.02641 -17.40859 41027 ft 466 kts 94°
2026-04-23 23:09 52.02628 -17.30343 41028 ft 465 kts 94°
2026-04-23 23:10 52.02606 -17.19874 41039 ft 465 kts 94°
2026-04-23 23:10 52.02575 -17.09334 41037 ft 465 kts 94°
2026-04-23 23:11 52.02534 -16.98861 41045 ft 465 kts 95°
2026-04-23 23:11 52.02484 -16.88336 41049 ft 465 kts 95°
2026-04-23 23:12 52.02425 -16.77860 41051 ft 465 kts 95°
2026-04-23 23:12 52.02356 -16.67386 41059 ft 465 kts 95°
2026-04-23 23:13 52.02278 -16.56860 41055 ft 465 kts 95°
2026-04-23 23:13 52.02190 -16.46370 41067 ft 465 kts 95°
2026-04-23 23:14 52.02094 -16.35910 41043 ft 465 kts 95°
2026-04-23 23:14 52.01988 -16.25454 41067 ft 464 kts 95°
2026-04-23 23:15 52.01873 -16.14992 41070 ft 464 kts 95°
2026-04-23 23:15 52.01749 -16.04541 41079 ft 464 kts 95°
2026-04-23 23:16 52.01615 -15.94041 41078 ft 464 kts 95°
2026-04-23 23:16 52.01472 -15.83538 41064 ft 464 kts 96°
2026-04-23 23:17 52.01320 -15.73092 41083 ft 464 kts 96°
2026-04-23 23:17 52.01159 -15.62678 41092 ft 464 kts 96°
2026-04-23 23:18 52.00988 -15.52182 41091 ft 464 kts 96°
2026-04-23 23:18 52.00808 -15.41728 41098 ft 465 kts 96°
2026-04-23 23:19 52.00619 -15.31219 41102 ft 465 kts 96°
2026-04-23 23:19 52.00420 -15.20762 41102 ft 465 kts 96°
2026-04-23 23:20 52.00213 -15.10281 41103 ft 464 kts 96°
2026-04-23 23:20 51.99997 -14.99776 41101 ft 464 kts 96°
2026-04-23 23:21 51.99956 -14.89305 41100 ft 466 kts 94°
2026-04-23 23:21 52.00038 -14.78823 41097 ft 465 kts 94°
2026-04-23 23:22 52.00089 -14.68374 41109 ft 465 kts 94°
2026-04-23 23:22 52.00105 -14.57852 41115 ft 465 kts 94°
2026-04-23 23:23 52.00105 -14.47393 41113 ft 465 kts 95°
2026-04-23 23:23 52.00097 -14.36907 41118 ft 465 kts 95°
2026-04-23 23:24 52.00081 -14.26451 41112 ft 465 kts 95°
2026-04-23 23:24 52.00057 -14.15953 41122 ft 465 kts 95°
2026-04-23 23:25 51.99995 -14.05464 41120 ft 463 kts 98°
2026-04-23 23:25 51.99074 -13.95206 41134 ft 457 kts 108°
2026-04-23 23:26 51.97256 -13.85425 41132 ft 455 kts 111°
2026-04-23 23:26 51.95310 -13.75645 41124 ft 455 kts 112°
2026-04-23 23:27 51.93374 -13.65877 41134 ft 456 kts 111°
2026-04-23 23:27 51.91769 -13.57730 41135 ft 457 kts 111°
2026-04-23 23:28 51.89838 -13.47927 41134 ft 457 kts 111°
2026-04-23 23:28 51.87899 -13.38124 41135 ft 457 kts 111°
2026-04-23 23:29 51.85951 -13.28325 41143 ft 457 kts 112°
2026-04-23 23:29 51.83994 -13.18539 41131 ft 457 kts 111°
2026-04-23 23:30 51.82030 -13.08764 41137 ft 457 kts 112°
2026-04-23 23:30 51.80059 -12.99003 41151 ft 457 kts 112°
2026-04-23 23:31 51.78076 -12.89238 41150 ft 458 kts 112°
2026-04-23 23:31 51.76087 -12.79484 41148 ft 458 kts 112°
2026-04-23 23:32 51.74087 -12.69727 41134 ft 458 kts 112°
2026-04-23 23:32 51.72081 -12.59990 41143 ft 458 kts 112°
2026-04-23 23:33 51.70066 -12.50255 41145 ft 458 kts 112°
2026-04-23 23:33 51.68042 -12.40523 41153 ft 458 kts 112°
2026-04-23 23:34 51.66005 -12.30779 41154 ft 458 kts 112°
2026-04-23 23:34 51.63987 -12.21173 41152 ft 458 kts 112°
2026-04-23 23:35 51.61939 -12.11466 41132 ft 458 kts 112°
2026-04-23 23:35 51.59880 -12.01759 41154 ft 459 kts 112°
2026-04-23 23:36 51.57811 -11.92049 41159 ft 459 kts 112°
2026-04-23 23:36 51.55721 -11.82287 41166 ft 460 kts 112°
2026-04-23 23:37 51.53640 -11.72614 41163 ft 460 kts 112°
2026-04-23 23:37 51.51543 -11.62910 41154 ft 460 kts 112°
2026-04-23 23:38 51.49425 -11.53158 41162 ft 461 kts 112°
2026-04-23 23:38 51.47309 -11.43463 41157 ft 461 kts 112°
2026-04-23 23:39 51.45193 -11.33809 41169 ft 461 kts 112°
2026-04-23 23:39 51.43056 -11.24109 41166 ft 462 kts 112°
2026-04-23 23:40 51.40911 -11.14413 41167 ft 462 kts 113°
2026-04-23 23:40 51.38748 -11.04684 41144 ft 462 kts 112°
2026-04-23 23:41 51.36581 -10.94983 41167 ft 462 kts 113°
2026-04-23 23:41 51.34423 -10.85366 41176 ft 462 kts 113°
2026-04-23 23:42 51.32237 -10.75669 41175 ft 463 kts 113°
2026-04-23 23:42 51.30048 -10.66003 41177 ft 463 kts 113°
2026-04-23 23:43 51.27843 -10.56311 41172 ft 463 kts 113°
2026-04-23 23:43 51.25642 -10.46681 41177 ft 463 kts 113°
2026-04-23 23:44 51.23428 -10.37037 41178 ft 463 kts 113°
2026-04-23 23:44 51.21192 -10.27343 41182 ft 464 kts 113°
2026-04-23 23:45 51.18956 -10.17691 41183 ft 464 kts 113°
2026-04-23 23:45 51.16722 -10.08091 41186 ft 464 kts 113°
2026-04-23 23:46 51.14464 -9.98433 41182 ft 465 kts 113°
2026-04-23 23:46 51.12191 -9.88755 41186 ft 464 kts 114°
2026-04-23 23:47 51.09939 -9.79208 41186 ft 464 kts 114°
2026-04-23 23:47 51.07661 -9.69593 41188 ft 464 kts 114°
2026-04-23 23:48 51.05376 -9.59989 41181 ft 464 kts 114°
2026-04-23 23:48 51.03083 -9.50396 41188 ft 464 kts 114°
2026-04-23 23:49 50.99632 -9.36039 41188 ft 464 kts 114°
2026-04-23 23:49 50.97326 -9.26500 41194 ft 464 kts 114°
2026-04-23 23:50 50.95014 -9.16976 41185 ft 465 kts 114°
2026-04-23 23:50 50.92679 -9.07397 41186 ft 465 kts 114°
2026-04-23 23:51 50.90339 -8.97837 41199 ft 465 kts 114°
2026-04-23 23:51 50.88006 -8.88353 41194 ft 465 kts 114°
2026-04-23 23:52 50.85647 -8.78802 41206 ft 466 kts 114°
2026-04-23 23:52 50.83278 -8.69250 41204 ft 466 kts 114°
2026-04-23 23:53 50.80901 -8.59707 41205 ft 466 kts 114°
2026-04-23 23:53 50.78515 -8.50169 41205 ft 467 kts 114°
2026-04-23 23:54 50.76122 -8.40643 41197 ft 467 kts 114°
2026-04-23 23:54 50.73720 -8.31121 41202 ft 467 kts 114°
2026-04-23 23:55 50.71310 -8.21611 41208 ft 467 kts 114°
2026-04-23 23:55 50.68890 -8.12097 41207 ft 467 kts 114°
2026-04-23 23:56 50.66463 -8.02591 41207 ft 467 kts 114°
2026-04-23 23:56 50.64107 -7.93030 41194 ft 468 kts 112°
2026-04-23 23:57 50.61907 -7.83384 41211 ft 468 kts 112°
2026-04-23 23:57 50.59709 -7.73732 41211 ft 468 kts 112°
2026-04-23 23:58 50.57479 -7.64089 41211 ft 469 kts 112°
2026-04-23 23:58 50.55228 -7.54465 41209 ft 469 kts 112°
2026-04-23 23:59 50.52979 -7.44906 41208 ft 469 kts 113°
2026-04-23 23:59 50.50709 -7.35298 41211 ft 469 kts 112°
2026-04-24 00:00 50.48433 -7.25704 41214 ft 469 kts 113°
2026-04-24 00:00 50.46149 -7.16116 41213 ft 469 kts 113°
2026-04-24 00:01 50.43855 -7.06531 41215 ft 469 kts 113°